METEOR 2-2 DEB

Satellite information

Favourite Embed

Satellite Type and Status

DEBRISIN ORBIT

Key statistics

Satellite METEOR 2-2 DEB at a glance.

Uptime

17714

Days in orbit

Revolutions

≈ 14.4

Per day

Orbit

LEO

Low Earth Orbit

Inclination

81.2

Latest

Satellite identification and parameters

Extended collection of information and parameters for METEOR 2-2 DEB.

Object identification

Identified? True

Debris? True

Object name: METEOR 2-2 DEB

International designator: 1977-002F

Object number (NORAD): 35423

Object ID (CCSDS): 35423

Country: COMMONWEALTH OF INDEPENDENT STATES (CIS)

Current information (Y/N): Y

RCS size: SMALL

Orbital parameters

Period: 100.103 minutes

Inclination: 81.2437 deg

SMA: 7141.549 km

Apoapsis: 771.316 km

Periapsis: 755.513 km

RAAN: 316.6827 deg

Eccentricy: 0.0011064

Argument of periapsis: 255.7968 deg

Mean anomaly: 104.199 deg

Mean motion: 14.38514034 rev/day

Mean motion (dot): 0.00005619 rev/day2

B* drag term: 0.0018332 1/REarth

Two-line elements (TLE)

Creation date: July 6, 2025, 6:05 p.m.

Reference frame: TEME

Reference center: EARTH

Epoch: July 6, 2025, 7:50 a.m. UTC

TLE line 0: 0 METEOR 2-2 DEB

TLE line 1: 1 35423U 77002F 25187.32649883 .00005619 00000-0 18332-2 0 9999

TLE line 2: 2 35423 81.2437 316.6827 0011064 255.7968 104.1990 14.38514034620264

Live tracking on map

Real-time ground track for satellite METEOR 2-2 DEB.

In-orbit conjunctions

A list of the most updated potential collisions computed for object METEOR 2-2 DEB.

Target Orbit TCA Probability of collision Miss distance Type
CZ-6A DEB LEO 2025-02-17 17:00:30 0.0001369618 244.0 (m) DEBRIS

Associated space launch

Second generation soviet meteorological satellite

METEOR 2-2 DEB was lifted into orbit during the mission ‘Vostok 8A92M | Meteor-2 2’, on board a Vostok 8A92M space rocket.

The launch took place on Jan. 6, 1977, 11:17 p.m. from 43/3 (43L).

For more information about the launch, click the button.

Launch to space Vostok 8A92M | Meteor-2 2
Vostok 8A92M | Meteor-2 2

Agency: N/A

Status: Launch Successful

Launch date: Jan. 6, 1977, 11:17 p.m. UTC

Rocket: Vostok 8A92M

Launch pad: 43/3 (43L)

Location: Plesetsk Cosmodrome, Russian Federation

...

Latest news about this satellite

There are no fresh news available about this satellite. Check back as we update our databases every day.


Newsletter sign-up

Weekly statistics, charts and insights to help you stay on top of the space industry.